Regional Weather Roundup
Issued by NWS

Home | Current Version | Previous Version | Text Only | Print | Product List | Glossary On
Versions: 1 2 3 4 5 6 7 8 9 10 11 12 13 14 15 16 17 18 19 20 21 22 23 24 25 26 27
000
ASUS43 KMPX 030810
RWRMN
WEATHER ROUNDUP FOR MINNESOTA
NATIONAL WEATHER SERVICE TWIN CITIES/CHANHASSEN MN
300 AM CDT MON OCT 03 2022


NOTE: "FAIR" INDICATES FEW OR NO CLOUDS BELOW 12,000 FEET WITH NO
SIGNIFICANT WEATHER AND/OR OBSTRUCTIONS TO VISIBILITY. N/A MEANS
CURRENT SKY AND/OR WEATHER CONDITIONS ARE NOT AVAILABLE.

MNZ060>063-068>070-030900-
   Twin Cities Metro

CITY           SKY/WX    TMP DP  RH WIND       PRES   REMARKS
TWIN CITIES    CLOUDY    61  49  64 SE7       30.27S
ST PAUL        MOCLDY    60  51  72 SE9       30.28S
CRYSTAL        MOCLDY    61  49  64 S6        30.26R
BLAINE         MOCLDY    63  50  63 S9        30.26S
LAKEVILLE      MOCLDY    61  46  59 S7        30.28S
EDEN PRAIRIE     N/A     62  47  57 S8        30.26R
SOUTH ST PAUL  MOCLDY    60  50  70 SE6       30.28S
LAKE ELMO      FAIR      59  52  77 S8        30.29S
$$
MNZ001>005-007-008-013>017-022>024-027-028-030900-
   Northwest Minnesota

CITY           SKY/WX    TMP DP  RH WIND       PRES   REMARKS
BEMIDJI        MOCLDY    57  49  75 CALM      30.18S
HALLOCK        MOCLDY    59  52  77 SE9       30.06F
ROSEAU           N/A     59  52  77 S10       30.11F
WARROAD        MOCLDY    57  54  88 S5        30.12S
THIEF RVR FALL MOCLDY    63  47  55 S9        30.13S
CROOKSTON      CLOUDY    63  46  55 S9        30.10F
FOSSTON        MOCLDY    63  43  48 S13       30.14F
DETROIT LAKES  MOCLDY    57  48  72 SE7       30.16S
MOORHEAD       MOCLDY    63  43  48 S13G21    30.11S
PARK RAPIDS    MOCLDY    57  47  69 SE6       30.19F
MAHNOMEN       FAIR      61  46  57 S10       30.14S
$$
MNZ006-009>011-018-025>026-030900-
   North Central Minnesota

CITY           SKY/WX    TMP DP  RH WIND       PRES   REMARKS
BAUDETTE       MOCLDY    55  50  83 SE7       30.16F
INTL FALLS     CLOUDY    55  52  89 SE5       30.19F
WASKISH        CLOUDY    63  52  67 S7        30.16S
BIG FORK       MOCLDY    57  54  88 SE6       30.26F
GRAND RAPIDS   CLOUDY    53  52  96 SE7       30.26S
CRANE LAKE     CLOUDY    54  50  87 CALM      30.26S
ORR            MOCLDY    54  52  94 S5        30.22F
COOK           LGT RAIN  54  50  87 CALM      30.25S
WALKER         PTSUNNY   58  48  69 S6        30.21S
$$
MNZ012-019>021-037-030900-
   Northeast Minnesota

CITY           SKY/WX    TMP DP  RH WIND       PRES   REMARKS
DULUTH         LGT RAIN  52  50  93 SE5       30.28S VSB 1
ELY            CLOUDY    54  48  82 S3        30.27S
HIBBING        CLOUDY    50  50 100 SE5       30.26S
EVELETH        CLOUDY    52  50  95 CALM      30.28S
DULUTH HARBOR  LGT RAIN  55  54  94 NE9       30.28S
TWO HARBORS    CLOUDY    48  48 100 CALM      30.28S
GRAND MARAIS     N/A     44  42  93 N3        30.30S
G MARAIS ARPRT PTCLDY    39  39 100 CALM      30.29S
$$
MNZ029>031-032-039>041-046>048-054>057-064-030900-
   West Central Minnesota

CITY           SKY/WX    TMP DP  RH WIND       PRES   REMARKS
FERGUS FALLS   MOCLDY    61  45  55 S12       30.14F
WHEATON          N/A     55  45  67 SE13      30.14S
MORRIS         PTCLDY    55  39  54 SE9       30.18S
ALEXANDRIA     PTCLDY    61  43  51 S10       30.21S
ELBOW LAKE     FAIR      58  44  58 S13       30.17S
WADENA         CLEAR     54  46  76 SE6       30.20S
GLENWOOD       PTCLDY    59  45  58 SE13      30.21S
APPLETON         N/A     61  41  48 S9        30.18R
BENSON         PTCLDY    57  43  58 S10       30.20F
ORTONVILLE       N/A     54  43  66 SE8       30.15S
MADISON        MOCLDY    61  43  51 SE9       30.19S
WILLMAR        FAIR      55  43  62 SE6       30.26R
$$
MNZ033>034-036-042>043-049>051-058-059-030900-
   Central Minnesota

CITY           SKY/WX    TMP DP  RH WIND       PRES   REMARKS
ST CLOUD       PTCLDY    56  49  77 SE5       30.24S
SAUK CENTRE    FAIR      54  44  69 SE5       30.23S
PAYNESVILLE    PTCLDY    59  43  55 S8        30.24S
AITKIN         MOCLDY    55  52  88 CALM      30.24F
PINE RIVER       N/A     55  50  82 S3        30.25S
BRAINERD       MOCLDY    59  50  72 SE6       30.24F
STAPLES        MOCLDY    59  48  67 SE3       30.22S
LONG PRAIRIE   FAIR      54  45  71 S8        30.22F
LITTLE FALLS   MOCLDY    57  50  77 SE5       30.24S
CAMP RIPLEY    PTSUNNY   55  50  83 SE7       30.22S
LITCHFIELD     PTCLDY    57  41  54 CALM      30.24S VSB 1
BUFFALO        CLOUDY    61  46  59 S7        30.25R
MAPLE LAKE     MOCLDY    60  46  60 S5        30.27R
HUTCHINSON     MOCLDY    54  43  66 SE3       30.26S
$$
MNZ037-044-045-052-053-030900-
   East Central Minnesota

CITY           SKY/WX    TMP DP  RH WIND       PRES   REMARKS
PRINCETON      MOCLDY    59  52  77 S5        30.26S
MORA           MOCLDY    59  52  77 CALM      30.32R
CAMBRIDGE      MOCLDY    61  45  55 CALM      30.26S
RUSH CITY      MOCLDY    61  55  82 S6        30.27S
MOOSE LAKE     MOCLDY    54  52  94 CALM      30.28R
HINCKLEY       PTSUNNY   55  54  94 CALM      30.28R
CLOQUET        CLOUDY    52  52 100 SE3       30.27S FOG
MCGREGOR       MOCLDY    54  52  94 SE5       30.27S
$$
MNZ071>073-080-081-089-090-097-098-030900-
   Southwest Minnesota

CITY           SKY/WX    TMP DP  RH WIND       PRES   REMARKS
MONTEVIDEO     PTCLDY    57  45  62 S7        30.21S
GRANITE FALLS  PTCLDY    56  44  63 SE8       30.23S
CANBY          PTCLDY    57  44  62 SE8       30.19S
MARSHALL       PTCLDY    59  43  55 S7        30.21S
REDWOOD FALLS  PTCLDY    52  42  69 SE7       30.23R
OLIVIA         PTCLDY    52  43  71 SE5       30.23R
WINDOM         PTCLDY    57  41  54 S9        30.23S
WORTHINGTON    PTCLDY    59  40  49 S12       30.23
JACKSON        PTCLDY    57  37  47 S13       30.25S
TRACY          PTCLDY    60  39  46 S9        30.22S
SLAYTON        PTCLDY    58  41  53 S8        30.24R
$$
MNZ065>067-074>077-082>085-091>093-030900-
   South Central Minnesota

CITY           SKY/WX    TMP DP  RH WIND       PRES   REMARKS
MANKATO        PTCLDY    55  45  68 SE9       30.27S
NEW ULM        PTCLDY    54  39  58 S9        30.26R
ST JAMES       PTCLDY    50  41  71 SE6       30.25R
FAIRMONT       PTCLDY    51  41  68 S9        30.27R
GLENCOE        PTCLDY    57  46  66 SE3       30.26R
FARIBAULT      PTCLDY    57  50  77 SE8       30.28S
OWATONNA       PTCLDY    57  48  72 SE9       30.28F
WASECA         PTCLDY    54  45  71 SE9       30.29F
ALBERT LEA     PTCLDY    55  48  76 S10       30.30S
$$
MNZ078>079-086>088-094>096-030900-
   Southeast Minnesota

CITY           SKY/WX    TMP DP  RH WIND       PRES   REMARKS
ROCHESTER      MOCLDY    54  49  83 S12       30.32F
RED WING       MOCLDY    59  52  77 SE6       30.29S
STANTON        MOCLDY    59  50  71 S9        30.28R
DODGE CENTER   PTCLDY    52  48  87 SE8       30.31R
WINONA         MOCLDY    54  52  94 CALM      30.33S
AUSTIN         PTCLDY    55  50  82 S5        30.31F
PRESTON        MOCLDY    53  49  86 S9        30.34S
$$
ABBREVIATIONS USED IN REMARKS
   TC - TEMPERATURES IN CELSIUS
  WCI - WIND CHILL INDEX
   HX - HEAT INDEX
  VSB - VISIBILITY
$$



USA.gov is the U.S. government's official web portal to all federal, state and local government web resources and services.